Location: Amherst
(42.5000°N, 72.5000°W)
Time: 14:44:33

ISS - Pass Details

Date: 13 March 2018
Orbit: 403 x 406 km, 51.6° (Epoch: 21 March)

Event Time Altitude Azimuth Distance (km) Brightness Sun altitude
Exits shadow 05:47:54 11° 325° (NW) 1,386 -1.4 -15.1°
Maximum altitude 05:50:19 22° 16° (NNE) 932 -1.7 -14.6°
Drops below altitude 10° 05:52:59 10° 71° (ENE) 1,463 0.4 -14.2°
Sets 05:55:22 0° 87° (E) 2,320 2.0 -13.7°
